Volver al catálogo

STARLINK-35271

ActivoComunicacionesSSO
NORAD 65812·PAYLOAD·🇺🇸 United States

Lanzado Sep 26, 2025 desde Vandenberg Space Force Base

Loading…

Próximos Pases (próximas 24 horas)

TLE

ActualizadoSource: CelesTrak SupGP

Época: Sep 15, 2026, 03:11 UTC

1 65812C 25218X   26258.13312500 -.00006358  00000+0 -19737-3 0  2589
2 65812  97.2845 115.6380 0001660 101.9866 289.5135 15.33443404    12

Sigue STARLINK-35271 en tiempo real con AllMySat

Download on the App Store